Location: Cueva de Ratón
(10.1013°N, 67.6606°W)
Time: 01:34:46
(UTC+00:00)

NOSS 3-4 (A) - Pass Details

Date: 02 December 2023
Orbit: 810 x 1402 km, 63.4° (Epoch: 03 March)

Event Time Altitude Azimuth Distance (km) Brightness Sun altitude
Rises 23:36:03 0° 328° (NNW) 4,148 6.9 -21.3°
Reaches altitude 10° 23:38:45 10° 325° (NW) 3,253 6.4 -21.9°
Maximum altitude 23:46:37 59° 248° (WSW) 1,536 4.7 -23.7°
Drops below altitude 10° 23:55:05 10° 170° (S) 3,480 6.5 -25.7°
Sets 23:58:06 0° 166° (SSE) 4,453 7.0 -26.4°
